Weather History for Crescent City, CA

Change the Weather History Date:

Friday, December 13, 2013

  Actual Average Record
Temperature  
Mean Temperature 49 °F 47 °F  
Max Temperature 55 °F 54 °F 64 °F (1953)
Min Temperature 42 °F 41 °F 26 °F (1967)
Degree Days  
Heating Degree Days 16 18  
Month to date heating degree days 297 228  
Since 1 July heating degree days 1889 1845  
Cooling Degree Days 0 0  
Month to date cooling degree days 0 0  
Year to date cooling degree days 4 0  
Moisture  
Dew Point 43 °F    
Average Humidity 83    
Maximum Humidity 100    
Minimum Humidity 66    
Precipitation  
Precipitation 0.00 in 0.36 in 4.23 in (2003)
Month to date precipitation 1.27 3.94  
Year to date precipitation 28.88 56.70  
Since 1 July precipitation 8.95 19.77  
Snow  
Snow 0.00 in - - ()
Month to date snowfall 0.0  
Since 1 July snowfall 0.0  
Snow Depth 0.00 in    
Sea Level Pressure  
Sea Level Pressure 30.36 in    
Wind  
Wind Speed 5 mph (North)    
Max Wind Speed 12 mph    
Max Gust Speed 15 mph    
Visibility 6 miles    
Events Fog    
T = Trace of Precipitation, MM = Missing Value Source: NWS Daily Summary

Daily Weather History Graph

Daily Weather History Graph

Search for Another Location

Airport:

Trip Planner

Search our weather history database for the weather conditions in past years. The results will help you decide how hot, cold, wet, or windy it might be!

Date:

Astronomy

Dec. 13, 2013 Rise Set
Actual Time 7:36 AM PST 4:46 PM PST
Civil Twilight 7:04 AM PST 5:18 PM PST
Nautical Twilight 6:29 AM PST 5:53 PM PST
Astronomical Twilight 5:55 AM PST 6:27 PM PST
Moon 2:35 PM PST (12/13) 4:02 AM PST (12/13)
Length of Visible Light 10h 13m
Length of Day
9h 10m
Waxing Gibbous, 88% of the Moon is Illuminated
Dec 13
Waxing Gibbous
Dec 17
Full
Dec 25
Last Quarter
Jan 1
New
Jan 7
First Quarter

Hourly Weather History & Observations

Time (PST) Temp. Windchill Dew Point Humidity Pressure Visibility Wind Dir Wind Speed Gust Speed Precip Events Conditions
12:56 AM 46.0 °F 43.9 °F 42.1 °F 86% 30.29 in 10.0 mi East 4.6 mph - N/A   Overcast
1:37 AM 45.0 °F 42.6 °F 41.0 °F 86% 30.29 in 10.0 mi East 4.6 mph - N/A   Overcast
1:46 AM 46.0 °F 44.8 °F 42.1 °F 86% 30.29 in 10.0 mi ENE 3.5 mph - N/A   Overcast
1:56 AM 45.0 °F 42.6 °F 42.1 °F 90% 30.30 in 10.0 mi East 4.6 mph - N/A   Overcast
2:56 AM 45.0 °F 43.5 °F 41.0 °F 86% 30.30 in 10.0 mi East 3.5 mph - N/A   Overcast
3:56 AM 45.0 °F 43.5 °F 41.0 °F 86% 30.30 in 10.0 mi East 3.5 mph - N/A   Overcast
4:56 AM 46.0 °F 43.1 °F 39.9 °F 79% 30.30 in 10.0 mi East 5.8 mph - N/A   Overcast
5:56 AM 46.0 °F - 41.0 °F 83% 30.31 in 10.0 mi Calm Calm - N/A   Overcast
6:56 AM 46.0 °F - 41.0 °F 83% 30.35 in 10.0 mi Calm Calm - N/A   Overcast
7:42 AM 46.0 °F 43.9 °F 39.9 °F 79% 30.34 in 10.0 mi East 4.6 mph - N/A   Overcast
7:56 AM 46.0 °F 43.9 °F 39.9 °F 79% 30.35 in 10.0 mi ENE 4.6 mph - N/A   Overcast
8:48 AM 48.0 °F - 41.0 °F 77% 30.35 in 10.0 mi East 5.8 mph - N/A   Scattered Clouds
8:56 AM 48.9 °F - 41.0 °F 74% 30.35 in 10.0 mi East 5.8 mph - N/A   Partly Cloudy
9:56 AM 53.1 °F - 43.0 °F 69% 30.37 in 10.0 mi East 3.5 mph - N/A   Clear
10:35 AM 52.0 °F - 45.0 °F 77% 30.37 in 4.0 mi West 4.6 mph - N/A   Haze
10:44 AM 51.1 °F - 44.1 °F 77% 30.37 in 3.0 mi West 5.8 mph - N/A   Haze
10:56 AM 50.0 °F - 42.1 °F 74% 30.38 in 7.0 mi WNW 5.8 mph - N/A   Mostly Cloudy
11:07 AM 51.1 °F - 43.0 °F 74% 30.38 in 10.0 mi WNW 4.6 mph - N/A   Scattered Clouds
11:56 AM 52.0 °F - 43.0 °F 71% 30.37 in 8.0 mi NW 6.9 mph - N/A   Clear
12:56 PM 53.1 °F - 45.0 °F 74% 30.36 in 10.0 mi NNW 8.1 mph - N/A   Clear
1:56 PM 51.1 °F - 45.0 °F 80% 30.35 in 10.0 mi NNW 6.9 mph - N/A   Clear
2:56 PM 51.1 °F - 45.0 °F 80% 30.36 in 10.0 mi NNW 6.9 mph - N/A   Clear
3:29 PM 50.0 °F - 46.0 °F 86% 30.37 in 4.0 mi NW 9.2 mph - N/A   Scattered Clouds
3:32 PM 48.9 °F - 46.0 °F 90% 30.37 in 1.2 mi NW 10.4 mph - N/A   Mostly Cloudy
3:40 PM 48.0 °F - 46.0 °F 93% 30.37 in 0.5 mi NNW 9.2 mph - N/A Fog Fog
3:49 PM 48.0 °F - 46.0 °F 93% 30.37 in 1.8 mi NW 9.2 mph - N/A   Overcast
3:51 PM 48.2 °F - 46.4 °F 93% 30.37 in 4.0 mi NNW 10.4 mph - N/A   Overcast
3:56 PM 48.0 °F - 46.0 °F 93% 30.38 in 8.0 mi NW 10.4 mph - N/A   Overcast
4:56 PM 46.9 °F - 45.0 °F 93% 30.38 in 9.0 mi North 8.1 mph - N/A   Overcast
5:33 PM 46.9 °F - 45.0 °F 93% 30.38 in 2.5 mi NNW 10.4 mph - N/A   Overcast
5:44 PM 46.9 °F - 45.0 °F 93% 30.38 in 1.5 mi NNW 10.4 mph - N/A   Overcast
5:52 PM 46.4 °F 42.9 °F 44.6 °F 93% 30.38 in 1.0 mi North 6.9 mph - N/A   Mist
5:56 PM 46.9 °F - 45.0 °F 93% 30.39 in 0.8 mi North 9.2 mph - N/A   Mist
6:49 PM 46.0 °F - 46.0 °F 100% 30.37 in 1.0 mi Calm Calm - N/A   Mist
6:56 PM 46.0 °F 44.8 °F 46.0 °F 100% 30.37 in 0.5 mi North 3.5 mph - N/A Fog Fog
7:56 PM 45.0 °F 42.6 °F 44.1 °F 97% 30.36 in 0.2 mi NW 4.6 mph - N/A Fog Fog
8:56 PM 44.1 °F 42.5 °F 43.0 °F 96% 30.38 in 0.2 mi ENE 3.5 mph - N/A Fog Fog
9:56 PM 43.0 °F - 43.0 °F 100% 30.38 in 0.2 mi Calm Calm - N/A Fog Fog
10:56 PM 43.0 °F - 41.0 °F 93% 30.40 in 0.2 mi Calm Calm - N/A Fog Fog
11:56 PM 42.1 °F - 41.0 °F 96% 30.40 in 0.2 mi Calm Calm - N/A Fog Fog